FW4776 Weather Reports


time (UTC)temp
C
wind
direction
speed
KPH
gust
KPH
rain 1hr
cm
rain 24hr
cm
rain mn
cm
humidity
%
barometer
mb
20240420160903 20 300 1.6 6.4 0.00 0.00 0.00 34 1014.8
20240420160003 20 258 1.6 4.8 0.00 0.00 0.00 34 1014.8
20240420155403 20 253 1.6 4.8 0.00 0.00 0.00 34 1014.7
20240420154504 18 287 3.2 4.8 0.00 0.00 0.00 36 1014.6
20240420153603 18 288 3.2 4.8 0.00 0.00 0.00 36 1014.5
20240420152703 18 301 3.2 6.4 0.00 0.00 0.00 37 1014.5
20240420151803 17 296 3.2 4.8 0.00 0.00 0.00 39 1014.4
20240420151116 17 291 1.6 4.8 0.00 0.00 0.00 39 1014.2
20240420150003 17 247 0.0 1.6 0.00 0.00 0.00 39 1014.1
20240420145403 17 247 0.0 1.6 0.00 0.00 0.00 40 1014.1
20240420144503 16 244 0.0 1.6 0.00 0.00 0.00 44 1014.0
20240420143604 15 244 0.0 1.6 0.00 0.00 0.00 46 1014.0
20240420142703 15 0 0.0 0.0 0.00 0.00 0.00 48 1013.9
20240420141803 15 0 0.0 0.0 0.00 0.00 0.00 49 1013.8
20240420141117 14 0 0.0 0.0 0.00 0.00 0.00 50 1013.8
20240420134503 12 0 0.0 0.0 0.00 0.00 0.00 53 1013.6
20240420133603 11 0 0.0 0.0 0.00 0.00 0.00 55 1013.4
20240420132703 10 120 0.0 1.6 0.00 0.00 0.00 56 1013.2
20240420131803 10 120 0.0 1.6 0.00 0.00 0.00 58 1013.1
20240420130903 10 120 0.0 1.6 0.00 0.00 0.00 58 1013.1
20240420130003 10 0 0.0 0.0 0.00 0.00 0.00 57 1012.8
20240420125403 10 120 0.0 1.6 0.00 0.00 0.00 57 1013.0
20240420124503 10 120 0.0 1.6 0.00 0.00 0.00 57 1012.8
20240420123603 10 122 1.6 6.4 0.00 0.00 0.00 57 1012.7
20240420122703 10 128 0.0 1.6 0.00 0.00 0.00 56 1012.6
20240420121803 10 0 0.0 0.0 0.00 0.00 0.00 56 1012.6
20240420120903 10 124 0.0 1.6 0.00 0.00 0.00 56 1012.4
20240420120003 10 124 1.6 1.6 0.00 0.00 0.00 56 1012.5
20240420115403 10 124 0.0 1.6 0.00 0.00 0.00 55 1012.4
20240420114503 10 124 0.0 1.6 0.00 0.00 0.00 54 1012.4
20240420113603 11 115 1.6 3.2 0.00 0.00 0.00 53 1012.3
20240420112703 11 99 0.0 1.6 0.00 0.00 0.00 52 1012.4
20240420111803 11 97 0.0 1.6 0.00 0.00 0.00 51 1012.3
20240420110903 11 89 0.0 1.6 0.00 0.00 0.00 50 1012.2
20240420110003 11 89 1.6 1.6 0.00 0.00 0.00 51 1012.1
20240420105403 11 89 0.0 1.6 0.00 0.00 0.00 52 1012.1
20240420104503 11 77 0.0 1.6 0.00 0.00 0.00 52 1012.1
20240420103603 11 328 0.0 1.6 0.00 0.00 0.00 51 1012.0
20240420102703 11 328 1.6 3.2 0.00 0.00 0.00 50 1012.0
20240420101803 11 325 1.6 3.2 0.00 0.00 0.00 53 1012.0
20240420100903 11 300 0.0 3.2 0.00 0.00 0.00 53 1011.9
20240420100003 11 0 0.0 0.0 0.00 0.00 0.00 51 1011.7
20240420095404 11 0 0.0 0.0 0.00 0.00 0.00 52 1011.5
20240420094715 11 170 1.6 3.2 0.00 0.00 0.00 51 1011.6
20240420093603 12 190 1.6 3.2 0.00 0.00 0.00 50 1011.5
20240420092703 12 187 1.6 4.8 0.00 0.00 0.00 49 1011.6
20240420091803 13 74 0.0 1.6 0.00 0.00 0.00 47 1011.4
20240420090903 13 41 0.0 1.6 0.00 0.00 0.00 45 1011.5
20240420090003 13 16 0.0 1.6 0.00 0.00 0.00 46 1011.5
20240420085613 13 30 0.0 1.6 0.00 0.00 0.00 47 1011.5
20240420084504 13 85 0.0 3.2 0.00 0.00 0.00 46 1011.5
20240420083603 13 190 0.0 3.2 0.00 0.00 0.00 44 1011.3
20240420082703 14 227 1.6 6.4 0.00 0.00 0.00 42 1011.4
20240420082013 14 240 1.6 6.4 0.00 0.00 0.00 41 1011.4
20240420081115 15 85 0.0 1.6 0.00 0.00 0.00 40 1011.2
20240420080003 15 98 3.2 6.4 0.00 0.00 0.00 40 1011.2
20240420075403 15 100 1.6 6.4 0.00 0.00 0.00 40 1011.2
20240420074717 14 84 0.0 3.2 0.00 0.00 0.00 41 1011.2
20240420073814 14 45 1.6 3.2 0.00 0.00 0.00 42 1011.2
20240420072704 15 36 1.6 3.2 0.00 0.00 0.00 40 1011.1
20240420071803 15 145 0.0 1.6 0.00 0.00 0.00 39 1011.0
20240420070903 15 163 1.6 6.4 0.00 0.00 0.00 39 1010.9
20240420070003 15 172 1.6 3.2 0.00 0.00 0.00 39 1010.9
20240420065615 15 172 1.6 3.2 0.00 0.00 0.00 38 1010.9
20240420064503 15 0 0.0 0.0 0.00 0.00 0.00 39 1010.9
20240420063603 16 354 0.0 1.6 0.00 0.00 0.00 36 1010.7
20240420062703 16 249 0.0 1.6 0.00 0.00 0.00 36 1010.7
20240420061803 17 246 1.6 3.2 0.00 0.00 0.00 34 1010.5
20240420060903 17 241 1.6 3.2 0.00 0.00 0.00 35 1010.5
20240420060003 17 245 1.6 4.8 0.00 0.00 0.00 36 1010.5
20240420055616 17 252 1.6 6.4 0.00 0.00 0.00 36 1010.5
20240420052703 17 119 0.0 1.6 0.00 0.00 0.00 39 1010.3
20240420052015 17 119 0.0 1.6 0.00 0.00 0.00 38 1010.2
20240420050903 18 115 0.0 1.6 0.00 0.00 0.00 35 1010.1
20240420050003 19 87 1.6 1.6 0.00 0.00 0.00 34 1010.1
20240420045403 19 62 1.6 1.6 0.00 0.00 0.00 34 1010.1
20240420044503 19 344 0.0 1.6 0.00 0.00 0.00 34 1010.1
20240420043816 19 352 0.0 1.6 0.00 0.00 0.00 34 1010.1
20240420042704 20 87 1.6 3.2 0.00 0.00 0.00 33 1009.9
20240420041803 20 82 1.6 3.2 0.00 0.00 0.00 32 1009.9
20240420041118 21 93 1.6 3.2 0.00 0.00 0.00 30 1009.9
20240420040215 21 102 1.6 3.2 0.00 0.00 0.00 30 1009.8
20240420035403 21 106 3.2 6.4 0.00 0.00 0.00 29 1009.7
20240420034503 21 98 4.8 6.4 0.00 0.00 0.00 28 1009.7
20240420033603 21 100 0.0 6.4 0.00 0.00 0.00 29 1009.4
20240420032703 22 0 0.0 0.0 0.00 0.00 0.00 27 1009.3
20240420032015 22 0 0.0 0.0 0.00 0.00 0.00 26 1009.1
20240420031112 22 0 0.0 0.0 0.00 0.00 0.00 26 1009.0
20240420030003 23 225 0.0 1.6 0.00 0.00 0.00 24 1008.8
20240420025403 23 218 0.0 1.6 0.00 0.00 0.00 24 1008.7
20240420024503 23 222 0.0 3.2 0.00 0.00 0.00 24 1008.7
20240420023603 24 224 0.0 3.2 0.00 0.00 0.00 23 1008.6
20240420022703 25 223 1.6 4.8 0.00 0.00 0.00 23 1008.6
20240420021804 26 224 0.0 4.8 0.00 0.00 0.00 22 1008.6
20240420020903 26 218 1.6 4.8 0.00 0.00 0.00 22 1008.6
20240420020003 27 220 3.2 9.7 0.00 0.00 0.00 21 1008.5
20240420015403 28 225 3.2 9.7 0.00 0.00 0.00 20 1008.5
20240420014503 28 227 1.6 4.8 0.00 0.00 0.00 19 1008.4
20240420013603 28 232 3.2 8.0 0.00 0.00 0.00 19 1008.4
20240420012703 28 254 1.6 6.4 0.00 0.00 0.00 14 1008.4
20240420011803 28 254 1.6 8.0 0.00 0.00 0.00 14 1008.3
20240420010903 29 228 1.6 6.4 0.00 0.00 0.00 13 1008.3
20240420010003 28 274 1.6 4.8 0.00 0.00 0.00 13 1008.2
20240420005403 28 268 1.6 4.8 0.00 0.00 0.00 13 1008.2
20240420004503 28 267 1.6 6.4 0.00 0.00 0.00 13 1008.2
20240420003812 28 200 3.2 8.0 0.00 0.00 0.00 12 1008.2
20240420002703 29 265 3.2 9.7 0.00 0.00 0.00 12 1008.1
20240420001803 30 313 1.6 6.4 0.00 0.00 0.00 11 1008.2
20240420000903 29 158 3.2 9.7 0.00 0.00 0.00 11 1008.2
20240420000217 29 145 3.2 9.7 0.00 0.00 0.00 12 1008.2
20240419235613 29 164 4.8 11.3 0.00 0.00 0.00 11 1008.3
20240419234503 29 267 3.2 9.7 0.00 0.00 0.00 11 1008.3
20240419233603 29 250 3.2 11.3 0.00 0.00 0.00 11 1008.3
20240419232703 28 203 4.8 9.7 0.00 0.00 0.00 12 1008.4
20240419231803 29 147 4.8 11.3 0.00 0.00 0.00 12 1008.5
20240419230904 29 149 3.2 9.7 0.00 0.00 0.00 12 1008.5
20240419230003 29 192 3.2 8.0 0.00 0.00 0.00 11 1008.5
20240419225403 28 214 4.8 14.5 0.00 0.00 0.00 12 1008.6
20240419223814 28 253 4.8 19.3 0.00 0.00 0.00 12 1008.7
20240419222704 28 217 4.8 17.7 0.00 0.00 0.00 12 1008.9
20240419221803 28 245 3.2 6.4 0.00 0.00 0.00 11 1009.0
20240419220904 28 199 3.2 12.9 0.00 0.00 0.00 14 1009.1
20240419220003 28 221 6.4 14.5 0.00 0.00 0.00 14 1009.3
20240419215615 28 226 4.8 11.3 0.00 0.00 0.00 13 1009.3
20240419214503 27 168 6.4 12.9 0.00 0.00 0.00 16 1009.3
20240419213603 27 243 3.2 9.7 0.00 0.00 0.00 15 1009.6
20240419212703 27 188 6.4 14.5 0.00 0.00 0.00 15 1009.7
20240419211806 27 180 11.3 20.9 0.00 0.00 0.00 15 1009.8
20240419210903 27 170 4.8 20.9 0.00 0.00 0.00 15 1009.8
20240419210003 27 192 4.8 11.3 0.00 0.00 0.00 15 1010.0
20240419205615 27 189 4.8 14.5 0.00 0.00 0.00 14 1010.0
20240419204503 27 176 8.0 17.7 0.00 0.00 0.00 16 1010.1
20240419203603 27 190 4.8 14.5 0.00 0.00 0.00 16 1010.2
20240419202703 27 199 9.7 19.3 0.00 0.00 0.00 16 1010.3
20240419201803 26 132 6.4 14.5 0.00 0.00 0.00 18 1010.4
20240419200903 26 128 8.0 14.5 0.00 0.00 0.00 18 1010.5
20240419200004 26 124 6.4 16.1 0.00 0.00 0.00 17 1010.4
20240419195403 26 158 6.4 12.9 0.00 0.00 0.00 18 1010.5
20240419194504 26 106 4.8 14.5 0.00 0.00 0.00 17 1010.6
20240419193603 26 113 6.4 14.5 0.00 0.00 0.00 18 1010.7
20240419192703 26 165 4.8 14.5 0.00 0.00 0.00 19 1010.8
20240419191803 25 133 3.2 11.3 0.00 0.00 0.00 19 1010.9
20240419191112 25 130 4.8 11.3 0.00 0.00 0.00 19 1011.1
20240419190215 25 113 6.4 16.1 0.00 0.00 0.00 19 1011.2
20240419185403 25 75 3.2 9.7 0.00 0.00 0.00 20 1011.2
20240419184503 25 101 4.8 12.9 0.00 0.00 0.00 22 1011.4
20240419183816 25 114 4.8 12.9 0.00 0.00 0.00 21 1011.5
20240419182703 25 140 6.4 12.9 0.00 0.00 0.00 23 1011.7
20240419182016 24 135 8.0 12.9 0.00 0.00 0.00 24 1011.6
20240419181113 24 151 6.4 17.7 0.00 0.00 0.00 24 1011.6
20240419180003 24 160 4.8 14.5 0.00 0.00 0.00 25 1011.7
20240419175403 23 139 4.8 12.9 0.00 0.00 0.00 26 1011.8
20240419174715 23 121 4.8 12.9 0.00 0.00 0.00 26 1011.9
20240419173603 23 150 6.4 14.5 0.00 0.00 0.00 27 1011.8
20240419172703 22 116 4.8 11.3 0.00 0.00 0.00 28 1011.9
20240419171803 22 124 3.2 8.0 0.00 0.00 0.00 28 1011.9
20240419170903 22 124 3.2 9.7 0.00 0.00 0.00 28 1011.8
20240419170216 22 129 4.8 9.7 0.00 0.00 0.00 28 1011.9
20240419165403 22 118 4.8 9.7 0.00 0.00 0.00 28 1011.9
20240419164503 22 95 1.6 6.4 0.00 0.00 0.00 28 1011.8
20240419163818 22 73 1.6 6.4 0.00 0.00 0.00 28 1011.8
20240419162703 22 334 0.0 3.2 0.00 0.00 0.00 27 1011.7
20240419162017 22 284 1.6 4.8 0.00 0.00 0.00 28 1011.7